TimeCDT,TemperatureF,Dew PointF,Humidity,Sea Level PressureIn,VisibilityMPH,Wind Direction,Wind SpeedMPH,Gust SpeedMPH,PrecipitationIn,Events,Conditions,WindDirDegrees,DateUTC
12:54 AM,75.9,73.0,91,30.29,7.0,Calm,Calm,-,N/A,,Clear,0,2013-07-17 05:54:00
1:54 AM,75.0,72.0,90,30.28,6.0,Calm,Calm,-,N/A,,Clear,0,2013-07-17 06:54:00
2:54 AM,75.0,72.0,90,30.27,6.0,Calm,Calm,-,N/A,,Clear,0,2013-07-17 07:54:00
3:54 AM,73.9,71.1,91,30.28,5.0,Calm,Calm,-,N/A,,Clear,0,2013-07-17 08:54:00
4:54 AM,73.9,71.1,91,30.29,5.0,Calm,Calm,-,N/A,,Clear,0,2013-07-17 09:54:00
5:54 AM,73.9,70.0,87,30.31,3.0,Calm,Calm,-,N/A,,Clear,0,2013-07-17 10:54:00
6:54 AM,77.0,72.0,84,30.32,5.0,Calm,Calm,-,N/A,,Haze,0,2013-07-17 11:54:00
7:54 AM,82.9,72.0,69,30.33,8.0,NNE,3.5,-,N/A,,Clear,30,2013-07-17 12:54:00
8:54 AM,87.1,73.0,63,30.33,10.0,NNE,4.6,-,N/A,,Clear,20,2013-07-17 13:54:00
9:54 AM,90.0,72.0,55,30.32,10.0,NNE,6.9,-,N/A,,Clear,30,2013-07-17 14:54:00
10:54 AM,91.9,72.0,52,30.31,10.0,North,5.8,-,N/A,,Scattered Clouds,10,2013-07-17 15:54:00
11:54 AM,91.0,71.1,52,30.30,10.0,Calm,Calm,-,N/A,,Partly Cloudy,0,2013-07-17 16:54:00
12:54 PM,93.9,71.1,47,30.29,10.0,Calm,Calm,-,N/A,,Mostly Cloudy,0,2013-07-17 17:54:00
1:54 PM,91.9,71.1,50,30.27,10.0,NNE,6.9,-,N/A,,Mostly Cloudy,20,2013-07-17 18:54:00
2:54 PM,95.0,71.1,46,30.25,10.0,Variable,5.8,-,N/A,,Clear,0,2013-07-17 19:54:00
3:54 PM,95.0,70.0,44,30.22,10.0,North,6.9,-,N/A,,Clear,360,2013-07-17 20:54:00
4:54 PM,93.9,70.0,46,30.21,10.0,North,4.6,-,N/A,,Clear,350,2013-07-17 21:54:00
5:54 PM,93.9,71.1,47,30.19,10.0,NNE,4.6,-,N/A,,Clear,30,2013-07-17 22:54:00
6:54 PM,91.9,71.1,50,30.19,10.0,North,5.8,-,N/A,,Clear,360,2013-07-17 23:54:00
7:54 PM,88.0,72.0,59,30.19,10.0,North,3.5,-,N/A,,Clear,360,2013-07-18 00:54:00
8:54 PM,86.0,71.1,61,30.20,10.0,Calm,Calm,-,N/A,,Clear,0,2013-07-18 01:54:00
9:54 PM,82.9,73.9,74,30.21,10.0,Calm,Calm,-,N/A,,Clear,0,2013-07-18 02:54:00
10:54 PM,80.1,73.9,81,30.20,9.0,Calm,Calm,-,N/A,,Clear,0,2013-07-18 03:54:00
11:54 PM,80.1,73.9,81,30.21,8.0,Calm,Calm,-,N/A,,Clear,0,2013-07-18 04:54:00